• In Uzbekistan
  • List of Countries
  • For 7 days
  • Water Temperature
  • Satellite Maps
  • Weather Map
  • Weather Widgets
  • user-avatar
    Login

    Hourly Weather Ischgl

    Today, 23 July, Tuesday

    Time Temperature Precipitation Wind Pressure Humidity
    00:00 +8°C° 0 mm 0 mps 581 mmHg 89%
    01:00 +8°C° 0 mm 0 mps 581 mmHg 90%
    02:00 +7°C° 0 mm 0 mps 580 mmHg 90%
    03:00 +7°C° 0 mm 0 mps 580 mmHg 90%
    04:00 +7°C° 0 mm 0 mps 580 mmHg 89%
    05:00 +9°C° 0 mm 0 mps 581 mmHg 82%
    06:00 +11°C° 0 mm 0 mps 582 mmHg 75%
    07:00 +13°C° 0 mm 0 mps 583 mmHg 68%
    08:00 +15°C° 0 mm 0 mps 584 mmHg 58%
    09:00 +16°C° 0 mm 0 mps 584 mmHg 48%
    10:00 +18°C° 0 mm 0 mps 585 mmHg 38%
    11:00 +21°C° 0 mm 1 mps 585 mmHg 36%
    12:00 +22°C° 0 mm 1 mps 586 mmHg 34%
    13:00 +23°C° 0 mm 1 mps 586 mmHg 32%
    14:00 +23°C° 0 mm 1 mps 586 mmHg 33%
    15:00 +23°C° 0 mm 2 mps 585 mmHg 34%
    16:00 +23°C° 0 mm 2 mps 585 mmHg 36%
    17:00 +20°C° 0.1 mm 2 mps 585 mmHg 47%
    18:00 +20°C° 0.1 mm 1 mps 584 mmHg 57%
    19:00 +19°C° 0.1 mm 1 mps 583 mmHg 68%
    20:00 +16°C° 0.1 mm 1 mps 582 mmHg 75%
    21:00 +12°C° 0.1 mm 0 mps 581 mmHg 82%
    22:00 +10°C° 0.1 mm 0 mps 580 mmHg 88%
    23:00 +10°C° 0 mm 0 mps 580 mmHg 88%

    Tomorrow, 24 July, Wednesday

    Time Temperature Precipitation Wind Pressure Humidity
    00:00 +10°C° 0 mm 0 mps 580 mmHg 88%
    01:00 +11°C° 0 mm 1 mps 580 mmHg 88%
    02:00 +11°C° 0 mm 1 mps 580 mmHg 88%
    03:00 +11°C° 0 mm 1 mps 579 mmHg 87%
    04:00 +11°C° 0 mm 1 mps 579 mmHg 87%
    05:00 +12°C° 0 mm 1 mps 580 mmHg 81%
    06:00 +13°C° 0 mm 0 mps 581 mmHg 76%
    07:00 +15°C° 0 mm 0 mps 582 mmHg 70%
    08:00 +18°C° 0 mm 1 mps 583 mmHg 63%
    09:00 +20°C° 0 mm 1 mps 583 mmHg 56%
    10:00 +21°C° 0 mm 1 mps 584 mmHg 49%
    11:00 +21°C° 0 mm 2 mps 584 mmHg 47%
    12:00 +21°C° 0 mm 2 mps 584 mmHg 45%
    13:00 +23°C° 0 mm 2 mps 584 mmHg 43%
    14:00 +21°C° 0.3 mm 2 mps 584 mmHg 45%
    15:00 +21°C° 0.3 mm 2 mps 584 mmHg 46%
    16:00 +21°C° 0.3 mm 2 mps 584 mmHg 48%
    17:00 +20°C° 0.7 mm 1 mps 583 mmHg 58%
    18:00 +19°C° 0.7 mm 1 mps 582 mmHg 68%
    19:00 +16°C° 0.7 mm 1 mps 581 mmHg 78%
    20:00 +15°C° 0.3 mm 1 mps 581 mmHg 81%
    21:00 +13°C° 0.3 mm 0 mps 581 mmHg 84%
    22:00 +11°C° 0.3 mm 0 mps 580 mmHg 87%
    23:00 +11°C° 0.4 mm 0 mps 580 mmHg 87%

    Day after tomorrow, 25 July, Thursday

    Time Temperature Precipitation Wind Pressure Humidity
    00:00 +10°C° 0.4 mm 0 mps 580 mmHg 88%
    01:00 +10°C° 0.4 mm 0 mps 579 mmHg 88%
    02:00 +10°C° 0 mm 0 mps 579 mmHg 88%
    03:00 +9°C° 0 mm 0 mps 579 mmHg 88%
    04:00 +9°C° 0 mm 0 mps 579 mmHg 87%
    05:00 +11°C° 0 mm 0 mps 580 mmHg 82%
    06:00 +12°C° 0 mm 0 mps 580 mmHg 77%
    07:00 +14°C° 0 mm 0 mps 581 mmHg 72%
    08:00 +16°C° 0 mm 0 mps 582 mmHg 65%
    09:00 +18°C° 0 mm 0 mps 583 mmHg 58%
    10:00 +19°C° 0 mm 0 mps 584 mmHg 51%
    11:00 +22°C° 0.1 mm 1 mps 584 mmHg 48%
    12:00 +23°C° 0.1 mm 1 mps 584 mmHg 44%
    13:00 +24°C° 0.1 mm 1 mps 584 mmHg 40%
    14:00 +23°C° 0.4 mm 1 mps 584 mmHg 43%
    15:00 +23°C° 0.4 mm 2 mps 583 mmHg 46%
    16:00 +21°C° 0.4 mm 2 mps 583 mmHg 49%
    17:00 +19°C° 1.9 mm 2 mps 582 mmHg 61%
    18:00 +17°C° 1.9 mm 2 mps 581 mmHg 73%
    19:00 +15°C° 1.9 mm 1 mps 580 mmHg 85%
    20:00 +14°C° 0.6 mm 1 mps 580 mmHg 85%
    21:00 +14°C° 0.6 mm 1 mps 579 mmHg 84%
    22:00 +13°C° 0.6 mm 1 mps 579 mmHg 84%
    23:00 +13°C° 0.1 mm 1 mps 579 mmHg 83%

    26 July, Friday

    Time Temperature Precipitation Wind Pressure Humidity
    00:00 +12°C° 0.1 mm 1 mps 578 mmHg 82%
    01:00 +12°C° 0.1 mm 1 mps 578 mmHg 81%
    02:00 +12°C° 0 mm 1 mps 578 mmHg 82%
    03:00 +10°C° 0 mm 0 mps 577 mmHg 82%
    04:00 +10°C° 0 mm 0 mps 577 mmHg 83%
    05:00 +11°C° 0.2 mm 0 mps 577 mmHg 79%
    06:00 +13°C° 0.2 mm 0 mps 578 mmHg 75%
    07:00 +14°C° 0.2 mm 0 mps 579 mmHg 71%
    08:00 +15°C° 0.6 mm 0 mps 579 mmHg 66%
    09:00 +18°C° 0.6 mm 1 mps 580 mmHg 62%
    10:00 +20°C° 0.6 mm 1 mps 580 mmHg 57%
    11:00 +20°C° 0.6 mm 1 mps 580 mmHg 55%
    12:00 +20°C° 0.6 mm 1 mps 580 mmHg 54%
    13:00 +20°C° 0.6 mm 2 mps 579 mmHg 52%
    14:00 +19°C° 2.1 mm 1 mps 579 mmHg 59%
    15:00 +18°C° 2.1 mm 1 mps 578 mmHg 65%
    16:00 +16°C° 2.1 mm 1 mps 577 mmHg 72%
    17:00 +15°C° 1.4 mm 1 mps 576 mmHg 77%
    18:00 +13°C° 1.4 mm 1 mps 576 mmHg 81%
    19:00 +12°C° 1.4 mm 2 mps 575 mmHg 86%
    20:00 +12°C° 0 mm 1 mps 575 mmHg 86%
    21:00 +11°C° 0 mm 1 mps 574 mmHg 87%
    22:00 +10°C° 0 mm 1 mps 574 mmHg 87%
    23:00 +10°C° 0 mm 1 mps 573 mmHg 86%

    27 July, Saturday

    Time Temperature Precipitation Wind Pressure Humidity
    00:00 +9°C° 0 mm 1 mps 573 mmHg 85%
    01:00 +9°C° 0 mm 1 mps 572 mmHg 84%
    02:00 +9°C° 0 mm 1 mps 572 mmHg 83%
    03:00 +8°C° 0 mm 1 mps 571 mmHg 83%
    04:00 +8°C° 0 mm 1 mps 571 mmHg 82%
    05:00 +9°C° 0 mm 0 mps 572 mmHg 77%
    06:00 +10°C° 0 mm 0 mps 573 mmHg 72%
    07:00 +12°C° 0 mm 0 mps 573 mmHg 67%
    08:00 +13°C° 0 mm 0 mps 574 mmHg 61%
    09:00 +15°C° 0 mm 0 mps 574 mmHg 56%
    10:00 +18°C° 0 mm 1 mps 575 mmHg 51%
    11:00 +18°C° 0.3 mm 1 mps 575 mmHg 49%
    12:00 +19°C° 0.3 mm 1 mps 575 mmHg 48%
    13:00 +18°C° 0.3 mm 2 mps 575 mmHg 46%
    14:00 +18°C° 1.1 mm 1 mps 574 mmHg 58%
    15:00 +15°C° 1.1 mm 1 mps 573 mmHg 70%
    16:00 +13°C° 1.1 mm 1 mps 572 mmHg 81%
    17:00 +12°C° 2.1 mm 1 mps 571 mmHg 84%
    18:00 +12°C° 2.1 mm 1 mps 571 mmHg 86%
    19:00 +11°C° 2.1 mm 1 mps 570 mmHg 89%
    20:00 +10°C° 0.2 mm 1 mps 570 mmHg 90%
    21:00 +10°C° 0.2 mm 1 mps 570 mmHg 91%
    22:00 +9°C° 0.2 mm 1 mps 570 mmHg 93%
    23:00 +9°C° 0.1 mm 1 mps 570 mmHg 92%

    28 July, Sunday

    Time Temperature Precipitation Wind Pressure Humidity
    00:00 +8°C° 0.1 mm 1 mps 570 mmHg 92%
    01:00 +8°C° 0.1 mm 1 mps 570 mmHg 92%
    02:00 +8°C° 0.1 mm 1 mps 569 mmHg 93%
    03:00 +6°C° 0.1 mm 0 mps 569 mmHg 94%
    04:00 +6°C° 0.1 mm 0 mps 569 mmHg 95%
    05:00 +6°C° 0.2 mm 0 mps 569 mmHg 94%
    06:00 +7°C° 0.2 mm 0 mps 570 mmHg 94%
    07:00 +9°C° 0.2 mm 1 mps 570 mmHg 93%
    08:00 +10°C° 0.5 mm 1 mps 571 mmHg 92%
    09:00 +10°C° 0.5 mm 1 mps 571 mmHg 90%
    10:00 +10°C° 0.5 mm 1 mps 571 mmHg 89%
    11:00 +10°C° 0.8 mm 1 mps 571 mmHg 91%
    12:00 +9°C° 0.8 mm 2 mps 571 mmHg 92%
    13:00 +9°C° 0.8 mm 2 mps 571 mmHg 93%
    14:00 +8°C° 1.6 mm 2 mps 571 mmHg 94%
    15:00 +8°C° 1.6 mm 2 mps 571 mmHg 95%
    16:00 +8°C° 1.6 mm 2 mps 571 mmHg 96%
    17:00 +8°C° 0.9 mm 2 mps 572 mmHg 97%
    18:00 +7°C° 0.9 mm 2 mps 572 mmHg 97%
    19:00 +7°C° 0.9 mm 2 mps 572 mmHg 97%
    20:00 +7°C° 0.3 mm 2 mps 572 mmHg 98%
    21:00 +8°C° 0.3 mm 1 mps 572 mmHg 98%
    22:00 +8°C° 0.3 mm 1 mps 572 mmHg 98%
    23:00 +8°C° 0.2 mm 1 mps 573 mmHg 98%
    Show more